{"data":{"norad_id":54381,"epoch":"2026-09-21T23:14:03.941952Z","epoch_age_seconds":35406,"freshness":"FRESH","line1":"1 54381U 22163A   26264.96810118 -.00000045  00000+0  22143-4 0  9994","line2":"2 54381  67.1477 232.0314 0006661 266.3875  93.6448 13.96675334194281","mean_motion":13.96675334,"eccentricity":0.0006661,"inclination_deg":67.1477,"raan_deg":232.0314,"arg_perigee_deg":266.3875,"mean_anomaly_deg":93.6448,"bstar":2.2143e-5,"rev_number":19428,"period_min":103.10198547546,"perigee_km":900.47919035038,"apogee_km":910.18222603123,"semimajor_km":7283.4677081908,"source":"CELESTRAK","updated_at":"2026-09-22T09:00:25.146192Z"}}